DateTimeUTC,F1_A11,F1_S11,BsB_S11,BsG_S11,BsR_S11,BbsB_S11,BbsG_S11,BbsR_S11,BaB_A11,BaG_A11,BaR_A11,T_S11,U_S11,P_S11,T1_A11
2020-03-05T00:00:00Z,00000380,21000600,,,,,,,,,,23.9,00.0,0624.0,31.0
2020-03-05T00:01:00Z,00000380,21000600,,,,,,,,,,24.0,00.0,0624.0,31.0
2020-03-05T00:02:00Z,00000380,21000600,,,,,,,,,,24.0,00.0,0624.0,31.0
2020-03-05T00:03:00Z,00000380,61000600,,,,,,,,,,24.0,00.0,0624.0,31.0
2020-03-05T00:04:00Z,00000380,41000600,0000.35,0000.45,-000.39,-000.23,0000.27,-000.27,-000.02,-000.12,-000.06,23.8,00.0,0624.8,31.0
2020-03-05T00:05:00Z,00000380,01000600,-000.69,0000.31,-000.47,-000.59,-000.11,-000.26,-000.05,0000.15,0000.13,23.8,00.0,0624.9,31.0
2020-03-05T00:06:00Z,00000380,01000600,0001.11,0000.80,0000.17,-000.43,-000.15,0000.33,-000.14,-000.14,-000.27,23.8,00.0,0624.9,31.0
2020-03-05T00:07:00Z,00000380,01000600,0000.36,0000.22,-000.40,-000.64,-000.07,-000.46,0000.05,-000.22,-000.02,23.8,00.0,0624.9,31.0
2020-03-05T00:08:00Z,00000380,01000600,0000.26,0000.10,0000.06,0000.09,0000.15,-000.37,-000.15,-000.02,0000.06,23.7,00.0,0624.8,30.9
2020-03-05T00:09:00Z,00000380,01000600,0000.27,-000.15,-000.21,-000.29,-000.19,-000.02,0000.08,-000.04,0000.01,23.7,00.0,0624.8,31.0
2020-03-05T00:10:00Z,00000380,01000600,0000.58,0000.06,-000.33,0000.42,-000.04,-000.08,-000.08,0000.05,-000.07,23.7,00.0,0624.8,31.0
2020-03-05T00:11:00Z,00000380,01000600,0000.80,0000.22,-000.17,0000.31,0000.24,0000.01,0000.03,0000.09,0000.08,23.7,00.0,0624.8,31.0
2020-03-05T00:12:00Z,00000380,01000600,-000.44,0000.68,-000.30,-000.30,0000.38,-000.13,-000.01,-000.03,0000.05,23.7,00.0,0624.8,31.0
2020-03-05T00:13:00Z,00000380,01000600,-000.94,0000.28,-000.41,0000.15,0000.14,-000.69,0000.18,0000.16,0000.08,23.7,00.0,0624.8,31.0
2020-03-05T00:14:00Z,00000380,01000600,0000.68,0000.19,-000.58,-000.25,0000.38,-000.31,-000.09,-000.07,0000.04,23.7,00.0,0624.8,31.0
2020-03-05T00:15:00Z,00000380,01000600,0000.75,0000.11,-000.61,0000.01,0000.34,-000.25,-000.13,-000.09,-000.08,23.7,00.0,0624.8,31.0
2020-03-05T00:16:00Z,00000380,01000600,0000.61,0000.74,-000.73,-000.37,0000.10,-000.19,0000.27,0000.20,-000.12,23.7,00.0,0624.8,31.0
2020-03-05T00:17:00Z,00000380,01000600,0000.54,0000.58,-000.78,-000.13,0000.17,-000.26,-000.28,-000.18,0000.12,23.7,00.0,0624.8,31.0
2020-03-05T00:18:00Z,00000380,01000600,0000.67,0000.07,-000.38,0000.31,0000.55,0000.27,-000.11,-000.04,-000.13,23.7,00.0,0624.8,31.0
2020-03-05T00:19:00Z,00000380,01000600,0000.52,0000.66,-000.01,-000.18,0000.40,-000.07,0000.05,-000.03,0000.05,23.7,00.0,0624.8,31.0
2020-03-05T00:20:00Z,00000380,01000600,0000.50,0000.38,-000.32,0000.15,-000.10,-000.04,0000.02,-000.12,-000.05,23.7,00.0,0624.8,31.0
2020-03-05T00:21:00Z,00000380,01000600,0000.24,0000.28,-000.30,-000.16,0000.52,-000.23,-000.19,-000.01,0000.09,23.7,00.0,0624.8,31.0
2020-03-05T00:22:00Z,00000380,01000600,0000.20,0000.22,-000.42,0000.77,0000.24,-000.11,0000.07,-000.11,-000.07,23.7,00.0,0624.8,31.0
2020-03-05T00:23:00Z,00000380,01000600,0000.19,0000.50,-000.12,0000.36,-000.27,-000.39,-000.09,-000.10,-000.19,23.7,00.0,0624.8,31.0
2020-03-05T00:24:00Z,00000380,01000600,0000.43,0000.36,-000.85,0000.07,-000.07,-000.16,-000.00,0000.04,0000.01,23.7,00.0,0624.7,31.0
2020-03-05T00:25:00Z,00000380,01000600,0000.35,-000.06,-000.26,0000.04,0000.08,-000.16,-000.02,0000.21,0000.10,23.6,00.0,0624.7,31.0
2020-03-05T00:26:00Z,00000380,01000600,-001.07,0000.64,-000.49,-000.00,-000.09,-000.24,0000.04,-000.31,-000.13,23.6,00.0,0624.7,31.0
2020-03-05T00:27:00Z,00000380,01000600,0000.58,-000.14,-000.27,-000.33,0000.30,0000.03,-000.03,0000.12,0000.06,23.6,00.0,0624.7,31.0
2020-03-05T00:28:00Z,00000380,01000600,-000.34,-000.30,-000.42,-000.14,-000.15,-000.04,0000.07,-000.01,0000.02,23.7,00.0,0624.7,31.0
2020-03-05T00:29:00Z,00000380,01000600,-000.08,0000.32,-001.03,-000.12,-000.15,-000.30,-000.01,-000.20,0000.11,23.6,00.0,0624.7,31.0
2020-03-05T00:30:00Z,00000380,01000600,0001.02,0000.21,-000.18,0000.78,-000.05,-000.16,0000.22,0000.09,0000.02,23.6,00.0,0624.7,30.9
2020-03-05T00:31:00Z,00000380,01000600,-000.56,0000.18,-000.23,0000.12,0000.20,-000.01,-000.20,-000.03,0000.02,23.6,00.0,0624.7,30.9
2020-03-05T00:32:00Z,00000380,01000600,0001.23,0000.26,-000.73,-000.92,-000.19,-000.30,-000.04,0000.15,-000.09,23.6,00.0,0624.7,31.0
2020-03-05T00:33:00Z,00000380,01000600,0000.17,0000.79,-000.24,-000.45,0000.73,0000.07,-000.15,0000.03,0000.00,23.6,00.0,0624.8,31.0
2020-03-05T00:34:00Z,00000380,01000600,0000.14,0000.06,-000.45,-000.33,0000.02,-000.03,0000.04,-000.17,-000.11,23.6,00.0,0624.8,30.9
2020-03-05T00:35:00Z,00000380,01000600,0000.45,0000.39,0000.01,0000.55,0000.01,-000.47,-000.07,-000.11,-000.04,23.6,00.0,0624.8,30.9
2020-03-05T00:36:00Z,00000380,01000600,0000.47,-000.19,-000.40,-000.00,0000.15,-000.28,-000.00,0000.12,0000.18,23.6,00.0,0624.8,31.0
2020-03-05T00:37:00Z,00000380,01000600,0000.71,-000.06,-000.33,-000.44,-000.47,0000.04,0000.05,0000.06,-000.09,23.6,00.0,0624.8,31.0
2020-03-05T00:38:00Z,00000380,01000600,-000.82,0000.51,-000.44,0000.67,0000.25,-000.26,0000.15,0000.05,0000.08,23.6,00.0,0624.8,31.0
2020-03-05T00:39:00Z,00000380,01000600,-001.45,0000.20,0000.13,0000.08,-000.02,0000.11,-000.03,0000.08,0000.04,23.6,00.0,0624.8,31.0
2020-03-05T00:40:00Z,00000380,01000600,-000.91,0000.39,-000.50,0000.31,-000.04,-000.53,0000.17,-000.02,0000.13,23.6,00.0,0624.8,31.0
2020-03-05T00:41:00Z,00000380,01000600,0001.83,0000.41,-000.41,0000.08,0000.09,0000.07,0000.07,0000.18,-000.08,23.6,00.0,0624.8,31.0
2020-03-05T00:42:00Z,00000380,01000600,0000.11,0000.93,-000.60,0000.41,-000.43,-000.27,-000.15,-000.06,0000.08,23.6,00.0,0624.8,31.0
2020-03-05T00:43:00Z,00000380,01000600,-000.53,0000.43,-000.31,-000.12,0000.29,-000.11,-000.17,-000.05,0000.11,23.6,00.0,0624.8,31.0
2020-03-05T00:44:00Z,00000380,01000600,0000.28,0000.36,-000.42,-000.68,0000.49,-000.06,0000.14,-000.12,-000.16,23.6,00.0,0624.8,31.0
2020-03-05T00:45:00Z,00000380,01000600,0000.38,0000.26,0000.38,0000.55,0000.04,0000.20,-000.15,-000.24,-000.16,23.6,00.0,0624.8,31.0
2020-03-05T00:46:00Z,00000380,01000600,-000.60,0000.60,-000.72,0000.73,-000.41,-000.29,-000.01,0000.14,0000.20,23.6,00.0,0624.8,31.0
2020-03-05T00:47:00Z,00000380,01000600,-000.00,0000.48,0000.23,0001.17,-000.08,-000.04,0000.08,-000.05,-000.11,23.6,00.0,0624.8,31.0
2020-03-05T00:48:00Z,00000380,01000600,-000.24,0000.53,-000.50,0000.40,-000.27,0000.20,-000.10,0000.32,0000.00,23.6,00.0,0624.8,31.0
2020-03-05T00:49:00Z,00000380,01000600,0000.76,-000.07,-000.50,-000.19,0000.29,0000.15,0000.17,-000.05,0000.03,23.6,00.0,0624.8,31.0
2020-03-05T00:50:00Z,00000380,01000600,-000.28,0001.00,-000.43,0000.31,0000.11,0000.19,-000.09,-000.08,-000.00,23.6,00.0,0624.8,31.0
2020-03-05T00:51:00Z,00000380,01000600,-001.46,-000.05,-000.37,-000.60,0000.00,-000.27,0000.05,-000.07,-000.02,23.6,00.0,0624.7,31.0
2020-03-05T00:52:00Z,00000380,01000600,-000.63,-000.27,-000.00,0000.65,0000.06,0000.17,-000.13,-000.19,-000.04,23.6,00.0,0624.8,31.0
2020-03-05T00:53:00Z,00000380,01000600,0001.63,-000.35,-000.16,0000.28,0000.37,0000.21,0000.05,0000.03,0000.00,23.6,00.0,0624.8,31.0
2020-03-05T00:54:00Z,00000380,01000600,0000.12,0000.40,-000.67,-000.29,0000.67,-000.31,0000.02,0000.03,0000.08,23.6,00.0,0624.8,31.0
2020-03-05T00:55:00Z,00000380,01000600,-000.32,-000.13,-000.05,0000.28,0000.13,-000.03,0000.14,0000.06,0000.06,23.6,00.0,0624.7,31.0
2020-03-05T00:56:00Z,00000380,01000600,-000.73,-000.13,-000.11,-000.24,0000.05,-000.22,-000.19,-000.01,-000.13,23.6,00.0,0624.7,31.0
2020-03-05T00:57:00Z,00000380,41000600,,,,,,,,,,23.6,00.0,0624.7,31.0
2020-03-05T00:58:00Z,00000380,61000600,,,,,,,,,,23.7,00.0,0623.9,30.9
2020-03-05T00:59:00Z,00000380,21000600,,,,,,,,,,23.8,00.0,0623.9,30.9
2020-03-05T01:00:00Z,00000380,21000600,,,,,,,,,,23.8,00.0,0623.9,30.9
2020-03-05T01:01:00Z,00000380,21000600,,,,,,,,,,23.8,00.0,0623.9,30.9
2020-03-05T01:02:00Z,00000380,21000600,,,,,,,,,,23.9,00.0,0623.9,30.9
2020-03-05T01:03:00Z,00000380,61000600,,,,,,,,,,23.9,00.0,0623.9,31.0
2020-03-05T01:04:00Z,00000380,41000600,-000.20,0000.53,0000.08,0000.49,0000.20,0000.05,0000.12,0000.05,-000.09,23.7,00.0,0624.7,31.0
2020-03-05T01:05:00Z,00000380,01000600,0000.12,0000.37,-000.23,0000.02,0000.06,0000.20,-000.13,-000.04,-000.07,23.6,00.0,0624.8,30.9
2020-03-05T01:06:00Z,00000380,01000600,0000.28,0000.30,-000.52,0000.46,-000.24,-000.27,-000.02,0000.02,0000.09,23.6,00.0,0624.8,30.9
2020-03-05T01:07:00Z,00000380,01000600,-000.78,0000.20,0000.39,0000.73,0000.44,0000.33,0000.15,-000.11,0000.03,23.6,00.0,0624.8,30.9
2020-03-05T01:08:00Z,00000380,01000600,-000.03,0000.41,0000.30,0001.18,0000.06,0000.04,-000.22,-000.12,-000.03,23.6,00.0,0624.9,30.9
2020-03-05T01:09:00Z,00000380,01000600,-000.56,-000.27,0000.05,0001.09,0000.07,0000.12,0000.15,0000.15,0000.02,23.6,00.0,0624.8,31.0
2020-03-05T01:10:00Z,00000380,01000600,-000.93,-000.11,-000.10,0000.36,-000.13,0000.25,-000.08,-000.11,-000.11,23.6,00.0,0624.8,30.9
2020-03-05T01:11:00Z,00000380,01000600,-001.04,-000.17,-000.19,0001.13,-000.07,-000.15,-000.13,-000.08,-000.00,23.6,00.0,0624.8,30.9
2020-03-05T01:12:00Z,00000380,01000600,-000.09,0000.26,0000.08,0000.11,0000.20,-000.24,-000.02,-000.04,0000.01,23.6,00.0,0624.8,30.9
2020-03-05T01:13:00Z,00000380,01000600,0000.13,-000.02,0000.07,0000.45,0000.28,0000.23,0000.19,0000.12,-000.10,23.5,00.0,0624.8,30.9
2020-03-05T01:14:00Z,00000380,01000600,-000.61,0000.30,-000.10,0000.62,-000.06,0000.22,-000.23,-000.04,0000.04,23.5,00.0,0624.8,30.9
2020-03-05T01:15:00Z,00000380,01000600,-000.66,0000.05,0000.01,0000.25,0000.14,0000.06,0000.23,0000.01,0000.04,23.5,00.0,0624.8,30.9
2020-03-05T01:16:00Z,00000380,01000600,-000.24,0000.21,0000.36,0000.83,0000.06,-000.30,-000.09,0000.02,-000.05,23.5,00.0,0624.8,30.9
2020-03-05T01:17:00Z,00000380,01000600,-000.53,0000.21,0000.19,0000.84,0000.09,0000.30,0000.01,0000.12,0000.14,23.5,00.0,0624.8,30.9
2020-03-05T01:18:00Z,00000380,01000600,0000.09,0000.13,-000.12,-000.48,-000.04,0000.08,0000.28,-000.02,0000.08,23.5,00.0,0624.8,31.0
2020-03-05T01:19:00Z,00000380,01000600,-000.52,0000.06,-000.04,0001.18,0000.09,0000.17,0000.01,0000.20,0000.01,23.5,00.0,0624.8,30.9
2020-03-05T01:20:00Z,00000380,01000600,-000.33,0000.17,0000.36,0000.54,0000.22,-000.04,0000.07,-000.15,0000.01,23.5,00.0,0624.8,30.9
2020-03-05T01:21:00Z,00000380,01000600,0000.50,0000.14,0000.18,-000.06,0000.06,0000.38,0000.03,0000.10,0000.06,23.5,00.0,0624.8,31.0
2020-03-05T01:22:00Z,00000380,01000600,-000.71,0000.51,-000.12,0001.64,-000.13,0000.15,-000.05,0000.11,0000.03,23.6,00.0,0624.8,30.9
2020-03-05T01:23:00Z,00000380,01000600,0000.53,-000.03,-000.00,0000.00,-000.36,0000.06,0000.15,-000.11,-000.15,23.6,00.0,0624.8,30.9
2020-03-05T01:24:00Z,00000380,01000600,-000.40,-000.03,-000.04,0000.80,0000.23,0000.04,-000.30,-000.12,-000.04,23.6,00.0,0624.8,30.9
2020-03-05T01:25:00Z,00000380,01000600,-000.27,0000.24,-000.59,-000.58,0000.29,0000.07,0000.07,0000.11,0000.10,23.6,00.0,0624.8,31.0
2020-03-05T01:26:00Z,00000380,01000600,-000.83,0000.23,-000.11,0000.69,0000.04,-000.37,-000.01,0000.04,0000.01,23.6,00.0,0624.8,30.9
2020-03-05T01:27:00Z,00000380,01000600,-000.62,-000.19,-000.06,0000.83,0000.30,0000.19,0000.13,-000.07,-000.10,23.5,00.0,0624.8,31.0
2020-03-05T01:28:00Z,00000380,01000600,-000.07,0000.23,0000.18,-000.05,0000.24,-000.17,0000.11,0000.09,0000.13,23.6,00.0,0624.8,31.0
2020-03-05T01:29:00Z,00000380,01000600,-000.52,-000.25,-000.17,-000.19,-000.31,0000.16,-000.12,0000.10,0000.02,23.6,00.0,0624.8,30.9
2020-03-05T01:30:00Z,00000380,01000600,0000.06,0000.12,-000.45,0000.41,0000.12,-000.16,0000.20,-000.03,0000.06,23.6,00.0,0624.7,30.9
2020-03-05T01:31:00Z,00000380,01000600,-000.46,0000.27,-000.22,0000.51,-000.08,0000.19,-000.27,-000.11,-000.23,23.6,00.0,0624.8,30.9
2020-03-05T01:32:00Z,00000380,01000600,0001.47,0000.42,0000.21,0000.44,-000.10,-000.35,0000.03,0000.09,0000.07,23.6,00.0,0624.8,31.0
2020-03-05T01:33:00Z,00000380,01000600,-000.27,0000.02,-000.04,0000.18,-000.00,0000.30,-000.05,-000.06,-000.06,23.6,00.0,0624.8,31.0
2020-03-05T01:34:00Z,00000380,01000600,0000.28,-000.16,0000.13,0000.21,0000.08,-000.15,-000.12,-000.19,0000.15,23.6,00.0,0624.8,31.0
2020-03-05T01:35:00Z,00000380,01000600,0000.94,0000.37,0000.52,0001.31,0000.04,0000.49,0000.08,0000.11,-000.18,23.6,00.0,0624.8,31.0
2020-03-05T01:36:00Z,00000380,01000600,-001.33,0000.94,0000.09,-000.50,-000.00,0000.04,0000.03,-000.10,0000.08,23.6,00.0,0624.8,31.0
2020-03-05T01:37:00Z,00000380,01000600,0000.42,0000.66,0000.31,0000.18,0000.40,0000.22,-000.07,0000.07,-000.05,23.6,00.0,0624.8,31.0
2020-03-05T01:38:00Z,00000380,01000600,-000.57,0000.57,0000.14,0000.45,-000.01,0000.13,-000.06,0000.09,0000.02,23.6,00.0,0624.8,31.0
2020-03-05T01:39:00Z,00000380,01000600,-000.35,0000.10,0000.10,0000.85,0000.41,0000.12,0000.08,-000.18,-000.04,23.6,00.0,0624.8,31.0
2020-03-05T01:40:00Z,00000380,01000600,0000.20,0000.20,-000.16,0001.12,0000.07,0000.25,0000.14,0000.09,0000.14,23.6,00.0,0624.8,31.0
2020-03-05T01:41:00Z,00000380,01000600,-001.38,0000.53,0000.32,-000.08,0000.03,0000.32,-000.09,0000.05,-000.15,23.6,00.0,0624.7,31.0
2020-03-05T01:42:00Z,00000380,01000600,-001.70,0000.77,-000.63,0000.25,0000.09,-000.03,-000.10,-000.11,0000.15,23.6,00.0,0624.7,30.9
2020-03-05T01:43:00Z,00000380,01000600,-000.24,-000.12,0000.56,0001.11,0000.13,0000.04,0000.12,-000.12,-000.05,23.6,00.0,0624.7,30.9
2020-03-05T01:44:00Z,00000380,01000600,-000.95,0000.34,0000.08,-000.14,-000.02,-000.22,-000.01,0000.16,-000.27,23.6,00.0,0624.8,31.0
2020-03-05T01:45:00Z,00000380,01000600,-000.93,0000.37,0000.11,0000.22,0000.37,-000.10,0000.02,-000.10,0000.18,23.6,00.0,0624.8,31.0
2020-03-05T01:46:00Z,00000380,01000600,-001.25,0000.12,0000.07,0000.85,-000.14,0000.64,-000.07,0000.03,-000.01,23.6,00.0,0624.7,31.0
2020-03-05T01:47:00Z,00000380,01000600,-000.28,0000.02,0000.47,0000.34,-000.08,0000.54,-000.02,-000.15,0000.13,23.6,00.0,0624.7,31.0
2020-03-05T01:48:00Z,00000380,01000600,0001.23,0000.35,0000.15,0000.15,-000.19,-000.23,0000.08,0000.24,-000.16,23.6,00.0,0624.8,31.0
2020-03-05T01:49:00Z,00000380,01000600,0000.12,0000.17,0000.09,0000.28,0000.29,-000.13,-000.12,-000.13,0000.00,23.6,00.0,0624.8,31.0
2020-03-05T01:50:00Z,00000380,01000600,0001.17,0000.53,-000.13,0000.60,0000.11,0000.06,-000.04,-000.03,-000.04,23.6,00.0,0624.8,30.9
2020-03-05T01:51:00Z,00000380,01000600,0000.50,0000.45,-000.39,0001.16,0000.15,-000.28,0000.05,-000.18,-000.01,23.6,00.0,0624.8,31.0
2020-03-05T01:52:00Z,00000380,01000600,-000.94,0000.36,0000.40,0000.02,0000.54,0000.15,-000.24,-000.01,-000.21,23.6,00.0,0624.8,31.0
2020-03-05T01:53:00Z,00000380,01000600,0000.77,0000.82,0000.32,0000.09,0000.30,-000.02,0000.08,-000.04,0000.11,23.6,00.0,0624.8,31.0
2020-03-05T01:54:00Z,00000380,01000600,-000.62,0000.57,0000.08,-000.53,-000.24,0000.14,-000.07,0000.01,0000.03,23.6,00.0,0624.8,31.0
2020-03-05T01:55:00Z,00000380,01000600,-001.18,0000.21,0000.14,0000.31,0000.44,-000.02,0000.12,-000.02,-000.11,23.6,00.0,0624.8,31.0
2020-03-05T01:56:00Z,00000380,01000600,-000.51,-000.14,0000.12,-000.59,0000.18,-000.05,-000.06,0000.11,0000.24,23.6,00.0,0624.8,31.0
2020-03-05T01:57:00Z,00000380,41000600,,,,,,,,,,23.7,00.0,0624.7,31.0
2020-03-05T01:58:00Z,00000380,61000600,,,,,,,,,,23.7,00.0,0623.9,31.0
2020-03-05T01:59:00Z,00000380,21000600,,,,,,,,,,23.8,00.0,0623.9,31.0
2020-03-05T02:00:00Z,00000380,21000600,,,,,,,,,,23.9,00.0,0623.9,31.0
2020-03-05T02:01:00Z,00000380,21000600,,,,,,,,,,23.9,00.0,0623.9,31.0
2020-03-05T02:02:00Z,00000380,21000600,,,,,,,,,,23.9,00.0,0623.8,31.0
2020-03-05T02:03:00Z,00000380,61000600,,,,,,,,,,23.9,00.0,0623.8,31.0
2020-03-05T02:04:00Z,00000380,41000600,-001.12,-000.22,0000.19,0000.00,-000.01,-000.30,0000.09,0000.18,0000.08,23.7,00.0,0624.6,30.9
2020-03-05T02:05:00Z,00000380,01000600,0000.45,-000.15,-000.09,-000.06,-000.54,-000.43,0000.05,-000.15,0000.03,23.7,00.0,0624.7,30.9
2020-03-05T02:06:00Z,00000380,01000600,-001.45,-000.30,-000.44,0000.24,0000.00,-000.27,0000.02,0000.05,-000.06,23.7,00.0,0624.7,31.0
2020-03-05T02:07:00Z,00000380,01000600,-001.14,0000.08,0000.11,0000.63,-000.55,-000.20,-000.12,-000.07,0000.14,23.7,00.0,0624.7,31.0
2020-03-05T02:08:00Z,00000380,01000600,0000.33,0000.27,-000.39,0000.41,-000.27,0000.19,0000.08,0000.10,-000.15,23.7,00.0,0624.7,31.0
2020-03-05T02:09:00Z,00000380,01000600,0000.52,0000.32,0000.01,-000.14,0000.28,-000.10,0000.02,-000.14,-000.03,23.6,00.0,0624.7,31.0
2020-03-05T02:10:00Z,00000380,01000600,0000.38,-000.42,-000.20,0000.62,0000.11,-000.09,-000.15,-000.09,-000.19,23.7,00.0,0624.7,31.0
2020-03-05T02:11:00Z,00000380,01000600,0000.25,0000.01,-000.19,0000.76,0000.03,-000.11,-000.12,-000.03,0000.10,23.6,00.0,0624.7,31.0
2020-03-05T02:12:00Z,00000380,01000600,-000.12,0000.65,0000.06,-000.59,0000.30,0000.05,0000.18,0000.03,-000.17,23.6,00.0,0624.7,31.0
2020-03-05T02:13:00Z,00000380,01000600,-000.76,0000.63,0000.07,-001.06,-000.41,-000.07,-000.16,0000.01,0000.20,23.6,00.0,0624.7,30.9
2020-03-05T02:14:00Z,00000380,01000600,-000.97,-000.26,0000.09,0000.52,0000.20,-000.01,0000.01,0000.03,-000.08,23.6,00.0,0624.7,30.9
2020-03-05T02:15:00Z,00000380,01000600,-000.81,0000.11,-000.23,0001.03,-000.19,0000.38,0000.03,0000.03,0000.08,23.6,00.0,0624.7,30.9
2020-03-05T02:16:00Z,00000380,01000600,-001.28,0000.02,-000.30,0000.05,-000.21,0000.03,0000.11,-000.07,-000.08,23.6,00.0,0624.7,30.9
2020-03-05T02:17:00Z,00000380,01000600,-000.80,0000.52,0000.24,0001.13,-000.05,-000.40,0000.08,0000.04,0000.12,23.6,00.0,0624.7,30.9
2020-03-05T02:18:00Z,00000380,01000600,-000.67,0000.35,-000.36,0001.24,0000.14,-000.39,0000.06,0000.10,0000.09,23.6,00.0,0624.7,31.0
2020-03-05T02:19:00Z,00000380,01000600,-001.03,-000.06,-000.07,0000.69,-000.23,-000.36,0000.05,0000.23,-000.02,23.6,00.0,0624.7,31.0
2020-03-05T02:20:00Z,00000380,01000600,0000.78,0000.54,-000.09,0000.21,-000.21,-000.15,-000.05,-000.22,0000.02,23.6,00.0,0624.7,30.9
2020-03-05T02:21:00Z,00000380,01000600,-001.50,0000.07,-000.23,-000.49,-000.27,0000.13,-000.01,0000.13,-000.02,23.6,00.0,0624.6,30.9
2020-03-05T02:22:00Z,00000380,01000600,-001.22,-000.11,-000.38,-000.21,-000.47,0000.34,-000.09,-000.01,-000.04,23.6,00.0,0624.6,30.9
2020-03-05T02:23:00Z,00000380,01000600,-000.05,0000.14,-000.05,0000.11,-000.20,0000.03,0000.25,0000.29,0000.10,23.6,00.0,0624.6,30.9
2020-03-05T02:24:00Z,00000380,01000600,0000.84,-000.22,-000.30,0000.32,0000.05,0000.09,0000.15,-000.22,-000.17,23.6,00.0,0624.6,30.9
2020-03-05T02:25:00Z,00000380,01000600,-001.53,0000.25,0000.06,-000.73,-000.38,0000.06,-000.22,-000.10,0000.08,23.6,00.0,0624.6,30.9
2020-03-05T02:26:00Z,00000380,01000600,-001.03,-000.29,0000.06,-000.15,-000.06,-000.37,0000.14,0000.05,0000.11,23.5,00.0,0624.6,30.9
2020-03-05T02:27:00Z,00000380,01000600,-000.58,-000.22,-000.12,0000.26,-000.17,0000.15,-000.08,0000.12,0000.03,23.5,00.0,0624.6,30.9
2020-03-05T02:28:00Z,00000380,01000600,0000.14,0000.58,-000.18,0000.54,-000.08,-000.45,0000.32,0000.18,-000.02,23.5,00.0,0624.6,30.9
2020-03-05T02:29:00Z,00000380,01000600,-001.16,0000.25,-000.25,-000.44,0000.26,0000.40,-000.15,-000.17,0000.00,23.5,00.0,0624.6,30.9
2020-03-05T02:30:00Z,00000380,01000600,-000.61,0000.07,-000.04,0000.36,-000.38,-000.18,0000.02,0000.15,0000.12,23.5,00.0,0624.6,30.9
2020-03-05T02:31:00Z,00000380,01000600,0000.02,0000.00,0000.01,0000.76,-000.60,-000.36,0000.09,-000.05,0000.01,23.5,00.0,0624.6,30.9
2020-03-05T02:32:00Z,00000380,01000600,-001.09,0000.70,-000.10,0000.43,-000.31,0000.12,-000.09,0000.03,-000.19,23.5,00.0,0624.6,31.0
2020-03-05T02:33:00Z,00000380,01000600,-000.55,0000.11,0000.06,0000.71,-000.12,-000.11,0000.34,0000.04,0000.23,23.5,00.0,0624.6,31.0
2020-03-05T02:34:00Z,00000380,01000600,0000.29,0000.21,-000.37,0000.76,-000.03,-000.58,0000.07,0000.22,0000.05,23.5,00.0,0624.5,30.9
2020-03-05T02:35:00Z,00000380,01000600,-000.32,-000.14,-000.11,0000.71,-000.06,0000.14,-000.05,-000.14,-000.01,23.5,00.0,0624.5,30.9
2020-03-05T02:36:00Z,00000380,01000600,-000.12,0000.37,0000.28,0000.33,-000.11,0000.43,0000.01,0000.03,0000.12,23.5,00.0,0624.6,30.9
2020-03-05T02:37:00Z,00000380,01000600,0000.50,0000.26,0000.17,0000.39,0000.21,-000.19,0000.10,0000.12,0000.03,23.5,00.0,0624.5,30.9
2020-03-05T02:38:00Z,00000380,01000600,-000.47,0000.01,-000.14,0000.84,-000.12,-000.56,0000.10,-000.21,-000.16,23.5,00.0,0624.5,30.9
2020-03-05T02:39:00Z,00000380,01000600,-000.25,0000.21,-000.13,-000.53,-000.01,-000.39,-000.09,0000.08,0000.14,23.5,00.0,0624.5,31.0
2020-03-05T02:40:00Z,00000380,01000600,0000.00,0000.30,0000.09,-000.07,0000.32,0000.31,-000.09,0000.08,-000.13,23.5,00.0,0624.5,31.0
2020-03-05T02:41:00Z,00000380,01000600,0001.16,0000.31,0000.11,-000.30,0000.16,-000.06,-000.04,-000.00,-000.16,23.5,00.0,0624.5,31.0
2020-03-05T02:42:00Z,00000380,01000600,0000.39,-000.23,0000.07,-000.05,0000.17,-000.11,-000.26,-000.06,0000.13,23.5,00.0,0624.5,31.0
2020-03-05T02:43:00Z,00000380,01000600,-000.69,-000.03,-000.31,0000.68,-000.09,-000.01,0000.04,-000.14,-000.09,23.6,00.0,0624.5,31.0
2020-03-05T02:44:00Z,00000380,01000600,-001.39,0000.19,-000.22,0000.69,-000.30,0000.37,-000.04,-000.09,0000.11,23.5,00.0,0624.5,31.0
2020-03-05T02:45:00Z,00000380,01000600,-000.74,0000.58,-000.19,0000.83,-000.41,-000.20,0000.11,0000.16,-000.04,23.6,00.0,0624.5,31.0
2020-03-05T02:46:00Z,00000380,01000600,-000.38,0000.02,-000.06,0000.93,-000.23,-000.14,-000.00,-000.11,0000.12,23.5,00.0,0624.5,31.0
2020-03-05T02:47:00Z,00000380,01000600,-000.59,0000.38,0000.45,0000.23,-000.27,0000.32,0000.04,0000.06,-000.03,23.5,00.0,0624.4,31.0
2020-03-05T02:48:00Z,00000380,01000600,0000.00,-000.09,0000.05,0000.10,-000.18,-000.02,-000.02,-000.09,-000.13,23.5,00.0,0624.5,31.0
2020-03-05T02:49:00Z,00000380,01000600,0000.44,0000.01,-000.06,0000.07,-000.27,-000.10,-000.08,-000.06,0000.07,23.5,00.0,0624.5,30.9
2020-03-05T02:50:00Z,00000380,01000600,-000.27,-000.22,-000.19,0001.25,-000.20,-000.21,-000.17,-000.08,-000.33,23.5,00.0,0624.5,30.9
2020-03-05T02:51:00Z,00000380,01000600,0000.03,0000.16,-000.29,0000.14,-000.32,-000.20,-000.30,-000.41,-000.07,23.5,00.0,0624.5,31.0
2020-03-05T02:52:00Z,00000380,01000600,0000.55,0000.65,-000.26,0000.41,-000.31,-000.22,-000.15,0000.00,-000.04,23.5,00.0,0624.5,30.9
2020-03-05T02:53:00Z,00000380,01000600,-000.42,0000.46,-000.06,0000.58,0000.19,0000.20,0000.09,0000.02,0000.04,23.5,00.0,0624.4,30.9
2020-03-05T02:54:00Z,00000380,01000600,-000.14,0000.58,0000.05,-000.63,0000.04,-000.09,0000.17,0000.16,-000.02,23.5,00.0,0624.4,30.9
2020-03-05T02:55:00Z,00000380,01000600,-000.62,-000.31,0000.28,0000.10,0000.01,0000.24,-000.12,0000.08,0000.01,23.5,00.0,0624.4,31.0
2020-03-05T02:56:00Z,00000380,01000600,0000.37,-000.44,-000.08,-001.10,0000.01,-000.34,0000.10,-000.07,0000.10,23.5,00.0,0624.4,31.0
2020-03-05T02:57:00Z,00000380,41000600,,,,,,,,,,23.6,00.0,0624.4,31.0
2020-03-05T02:58:00Z,00000380,61000600,,,,,,,,,,23.6,00.0,0623.6,31.0
2020-03-05T02:59:00Z,00000380,21000600,,,,,,,,,,23.7,00.0,0623.7,31.0
2020-03-05T03:00:00Z,00000380,21000600,,,,,,,,,,23.7,00.0,0623.7,30.9
2020-03-05T03:01:00Z,00000380,21000600,,,,,,,,,,23.8,00.0,0623.7,31.0
2020-03-05T03:02:00Z,00000380,21000600,,,,,,,,,,23.8,00.0,0623.7,31.0
2020-03-05T03:03:00Z,00000380,61000600,,,,,,,,,,23.8,00.0,0623.7,30.9
2020-03-05T03:04:00Z,00000380,41000600,-000.75,0000.09,0000.22,0000.56,-000.48,0000.53,0000.29,0000.30,0000.13,23.6,00.0,0624.3,30.9
2020-03-05T03:05:00Z,00000380,01000600,-000.26,0000.42,-000.23,0000.30,0000.13,-000.57,0000.21,0000.21,0000.20,23.5,00.0,0624.2,31.0
2020-03-05T03:06:00Z,00000380,01000600,-000.19,0000.53,-000.21,-000.21,0000.01,-000.01,0000.35,0000.35,0000.22,23.5,00.0,0624.2,30.9
2020-03-05T03:07:00Z,00000380,01000600,-000.70,-000.10,0000.53,-000.53,-000.19,0000.06,0000.26,0000.06,0000.21,23.5,00.0,0624.1,30.9
2020-03-05T03:08:00Z,00000380,01000600,0001.85,0000.16,0000.28,0000.38,-000.18,-000.26,0000.17,0000.26,-000.01,23.5,00.0,0624.1,30.9
2020-03-05T03:09:00Z,00000380,01000600,0000.42,-000.05,0000.21,0000.55,0000.11,0000.58,0000.04,-000.03,0000.16,23.5,00.0,0624.1,30.9
2020-03-05T03:10:00Z,00000380,01000600,0000.21,-000.35,-000.33,0000.24,0000.01,-000.10,0000.20,0000.25,0000.09,23.5,00.0,0624.1,30.9